Change the Weather History Date:

Thursday, November 8, 2012

  Actual Average Record
Temperature  
Mean Temperature 41 °F 40 °F  
Max Temperature 45 °F 48 °F 68 °F (2009)
Min Temperature 36 °F 33 °F 15 °F (1971)
Degree Days  
Heating Degree Days 24 25  
Month to date heating degree days 217 188  
Since 1 July heating degree days 938 975  
Moisture  
Dew Point 33 °F    
Average Humidity 72    
Maximum Humidity 76    
Minimum Humidity 67    
Precipitation  
Precipitation 0.00 in 0.09 in 0.96 in (1938)
Month to date precipitation 0.15 0.76  
Year to date precipitation 27.25 28.62  
Sea Level Pressure  
Sea Level Pressure 30.12 in    
Wind  
Wind Speed 3 mph (South)    
Max Wind Speed 9 mph    
Max Gust Speed 13 mph    
Visibility 9 miles    
Events      
T = Trace of Precipitation, MM = Missing Value Source: NWS Daily Summary

Daily Weather History Graph

Daily Weather History Graph

Search for Another Location

Airport or City:

Trip Planner

Search our weather history database for the weather conditions in past years. The results will help you decide how hot, cold, wet, or windy it might be!

Date:

Astronomy

Nov. 08, 2012 Rise Set
Actual Time 7:30 AM EST 5:21 PM EST
Civil Twilight 6:59 AM EST 5:52 PM EST
Nautical Twilight 6:24 AM EST 6:27 PM EST
Astronomical Twilight 5:50 AM EST 7:01 PM EST
Moon 1:10 AM EST (11/8) 2:14 PM EST (11/8)
Length of Visible Light 10h 52m
Length of Day
9h 50m
Waning Crescent, 33% of the Moon is Illuminated
Nov 8
Waning Crescent
Nov 13
New
Nov 20
First Quarter
Nov 28
Full
Dec 6
Last Quarter

Hourly Weather History & Observations

Time (EST) Temp. Windchill Dew Point Humidity Pressure Visibility Wind Dir Wind Speed Gust Speed Precip Events Conditions
12:53 AM 36.0 °F 32.1 °F 27.0 °F 70% 30.15 in 10.0 mi SSE 4.6 mph - N/A   Overcast
1:53 AM 37.0 °F 33.3 °F 28.0 °F 70% 30.16 in 10.0 mi South 4.6 mph - N/A   Overcast
2:53 AM 37.0 °F - 28.0 °F 70% 30.16 in 10.0 mi Calm Calm - N/A   Overcast
3:53 AM 37.0 °F - 28.0 °F 70% 30.17 in 10.0 mi Calm Calm - N/A   Overcast
4:53 AM 37.0 °F 34.5 °F 28.9 °F 73% 30.16 in 10.0 mi South 3.5 mph - N/A   Overcast
6:53 AM 37.0 °F 34.5 °F 30.0 °F 76% 30.17 in 10.0 mi ESE 3.5 mph - N/A   Overcast
7:53 AM 37.9 °F - 30.0 °F 73% 30.18 in 10.0 mi Calm Calm - N/A   Overcast
8:53 AM 39.9 °F 35.8 °F 30.0 °F 68% 30.19 in 10.0 mi South 5.8 mph - N/A   Overcast
9:53 AM 39.9 °F 36.7 °F 30.0 °F 68% 30.18 in 10.0 mi South 4.6 mph - N/A   Overcast
10:04 AM 41.0 °F - 30.2 °F 65% 30.16 in 10.0 mi Calm Calm - N/A   Overcast
10:53 AM 42.1 °F 39.2 °F 32.0 °F 67% 30.18 in 10.0 mi SSW 4.6 mph - N/A   Overcast
11:42 AM 42.8 °F 40.1 °F 35.6 °F 76% 30.14 in 8.0 mi SSW 4.6 mph - N/A   Overcast
11:53 AM 43.0 °F 40.3 °F 35.1 °F 74% 30.16 in 8.0 mi Variable 4.6 mph - N/A   Overcast
12:53 PM 44.1 °F - 35.1 °F 71% 30.14 in 9.0 mi Calm Calm - N/A   Overcast
1:53 PM 44.1 °F 40.8 °F 35.1 °F 71% 30.12 in 9.0 mi South 5.8 mph - N/A   Overcast
2:04 PM 44.6 °F 42.2 °F 35.6 °F 71% 30.10 in 9.0 mi Variable 4.6 mph - N/A   Overcast
2:43 PM 44.6 °F 43.1 °F 35.6 °F 71% 30.09 in 10.0 mi Variable 3.5 mph - N/A   Overcast
2:53 PM 44.1 °F 40.1 °F 36.0 °F 73% 30.11 in 10.0 mi South 6.9 mph - N/A   Overcast
3:00 PM 44.6 °F 40.7 °F 35.6 °F 71% 30.09 in 10.0 mi South 6.9 mph - N/A   Overcast
3:53 PM 44.1 °F 41.5 °F 36.0 °F 73% 30.10 in 10.0 mi South 4.6 mph - N/A   Overcast
4:40 PM 44.6 °F - 35.6 °F 71% 30.08 in 8.0 mi Calm Calm - N/A   Overcast
4:53 PM 44.1 °F 41.5 °F 35.1 °F 71% 30.09 in 8.0 mi South 4.6 mph - N/A   Overcast
5:07 PM 44.6 °F 43.1 °F 35.6 °F 71% 30.07 in 8.0 mi Variable 3.5 mph - N/A   Overcast
5:53 PM 44.1 °F 41.5 °F 35.1 °F 71% 30.08 in 10.0 mi South 4.6 mph - N/A   Overcast
6:53 PM 44.1 °F - 35.1 °F 71% 30.09 in 10.0 mi Calm Calm - N/A   Overcast
7:20 PM 44.6 °F 43.1 °F 35.6 °F 71% 30.07 in 8.0 mi Variable 3.5 mph - N/A   Overcast
7:53 PM 43.0 °F 40.3 °F 35.1 °F 74% 30.07 in 8.0 mi Variable 4.6 mph - N/A   Overcast
8:53 PM 43.0 °F 40.3 °F 35.1 °F 74% 30.07 in 8.0 mi SSW 4.6 mph - N/A   Mostly Cloudy
9:53 PM 42.1 °F 40.2 °F 35.1 °F 76% 30.06 in 6.0 mi Variable 3.5 mph - N/A   Haze
10:53 PM 43.0 °F - 36.0 °F 76% 30.09 in 8.0 mi Calm Calm - N/A   Overcast
11:53 PM 43.0 °F 41.3 °F 36.0 °F 76% 30.09 in 9.0 mi SSE 3.5 mph - N/A   Overcast